[[{"header":{"parameterUnit":"m.s-1","parameterCategory":1,"la1":30.2991,"la2":30.254,"lo1":-89.0895,"lo2":-89.0444,"dy":0.0017,"dx":0.0017,"nx":28,"ny":28,"refTime":"2024-08-25T21:00:00:Z","depth":0,"parameterNumber":2,"parameterNumberName":"U-component_of_WINDS"},"data":[0,0,0,0,0,0,0,0,0,0,0,0,0,0,0,0,0,0,0,0,0,0,0,0,0,0,0,0,0,0,0,0,0,0,0,0,0,0,0,0,0,0,0,0,0,0,0,0,0,0,0,0,0,0,0,0,0,0,1.1506,1.1506,0,1.1538,1.1538,1.1539,1.1556,1.1556,1.1556,1.1556,1.1586,1.1587,1.1588,0,0,0,0,0,0,0,0,0,0,0,0,0,1.1455,1.1456,1.1505,1.1506,1.1506,1.1538,1.1538,1.1539,1.1556,1.1556,1.1556,1.1556,1.1586,1.1587,1.1588,0,0,0,0,0,0,0,0,0,0,0,0,0,1.1481,1.1456,1.1505,1.1519,1.152,1.1538,1.1538,1.1539,1.1556,1.1556,1.1556,1.1556,1.1586,1.1587,1.1588,1.1594,0,0,1.1592,1.1592,0,0,0,0,0,0,0,0,1.1479,1.1483,1.1516,1.1518,1.152,1.1543,1.1532,1.1557,1.1556,1.1542,1.1556,1.1556,1.1572,1.1574,1.158,1.1595,1.1597,1.1592,1.1592,1.1593,1.1593,0,0,0,0,0,0,0,1.1478,1.1481,1.1518,1.1517,1.1519,1.1522,1.1526,1.1537,1.1556,1.1543,1.1545,1.1549,1.1572,1.1579,1.1581,1.1597,1.1592,1.1593,1.1593,1.1594,1.1618,1.1618,0,0,0,0,0,0,1.1474,1.148,1.1517,1.1519,1.1499,1.1523,1.1527,1.1535,1.1556,1.1559,1.1548,1.1549,1.1577,1.1579,1.1582,1.159,1.1593,1.1594,1.1595,1.1618,1.1618,1.1618,0,0,0,0,0,0,1.1473,1.1477,1.1516,1.15,1.1505,1.1524,1.1533,1.1536,1.1542,1.156,1.1563,1.1551,1.1577,1.158,1.1591,1.1591,1.1594,1.1595,1.1618,1.1618,1.1618,1.1606,0,0,0,0,0,0,1.1471,1.1477,1.148,1.15,1.1506,1.1525,1.1533,1.1537,1.1545,1.1546,1.1564,1.1566,1.1577,1.1589,1.1592,1.1593,1.1596,1.1619,1.1618,1.1618,1.1607,1.1606,1.1605,0,0,0,0,0,1.147,1.1475,1.148,1.1485,1.1511,1.1525,1.1529,1.1542,1.1544,1.1547,1.1559,1.1566,1.1591,1.159,1.1593,1.1595,1.1619,1.1618,1.1618,1.1607,1.1606,1.1605,0,0,0,0,0,0,1.1454,1.1478,1.1484,1.1496,1.1509,1.1528,1.1532,1.154,1.1552,1.1552,1.1567,1.1571,1.158,1.1588,1.1587,1.1601,1.1605,1.1606,1.1595,1.1594,1.1594,1.1591,1.1597,0,0,0,0,0,1.1452,1.1463,1.1483,1.1491,1.1498,1.1514,1.1521,1.153,1.1543,1.1548,1.156,1.1572,1.1582,1.1589,1.1599,1.1608,1.1612,1.161,1.1609,1.1609,1.1609,1.1613,1.1613,1.1618,1.1618,1.1618,0,0,1.1447,1.1462,1.1468,1.1489,1.1499,1.1509,1.1518,1.1529,1.1536,1.1549,1.1561,1.157,1.1584,1.1593,1.1598,1.16,1.1608,1.1608,1.1608,1.1608,1.1613,1.1613,1.1612,1.1618,1.1618,1.1618,0,0,1.1445,1.1457,1.1466,1.1477,1.1493,1.1504,1.1506,1.1524,1.1531,1.1543,1.1553,1.1561,1.1579,1.1589,1.1596,1.1596,1.1603,1.1599,1.1594,1.1599,1.1598,1.1598,1.1598,1.1598,1.1599,1.1599,1.1599,0,1.1437,1.1454,1.1469,1.1479,1.1487,1.1501,1.1509,1.1518,1.1537,1.1542,1.1544,1.1567,1.1577,1.1589,1.1589,1.1594,1.1596,1.1597,1.1597,1.1597,1.1597,1.1597,1.1597,1.1599,1.1599,1.1599,1.1599,0,1.1444,1.1455,1.1459,1.1478,1.1487,1.1496,1.1511,1.1518,1.1526,1.1536,1.1547,1.156,1.1573,1.1576,1.1584,1.1589,1.159,1.1595,1.1599,1.1596,1.1596,1.1596,1.1598,1.1598,1.1598,1.1598,0,0,1.1432,1.1459,1.146,1.1469,1.1488,1.1497,1.1505,1.1519,1.1525,1.1537,1.1544,1.1559,1.1563,1.1571,1.158,1.1584,1.1582,1.1588,1.1588,1.1586,1.1588,1.1584,1.1584,1.1587,1.1587,1.1587,1.1587,0,1.1432,1.145,1.1464,1.1476,1.1486,1.1499,1.1506,1.1518,1.1528,1.1537,1.1547,1.1557,1.1562,1.1567,1.1571,1.1582,1.1583,1.1582,1.1593,1.1593,1.1589,1.1584,1.158,1.1579,1.1587,1.1587,1.1587,0,1.1435,1.1448,1.1462,1.1479,1.1484,1.1491,1.1504,1.1513,1.1526,1.1533,1.1542,1.155,1.1559,1.1563,1.1575,1.1574,1.1579,1.1585,1.1585,1.1586,1.159,1.1585,1.1579,1.1579,1.1587,1.1587,1.1587,0,1.1425,1.1446,1.1456,1.1463,1.1484,1.1489,1.1497,1.1511,1.1518,1.1529,1.1534,1.1546,1.1552,1.156,1.1572,1.1573,1.1582,1.1587,1.1587,1.1587,1.1588,1.1588,1.1583,1.1592,1.1592,1.1592,1.1592,0,1.1424,1.1432,1.1452,1.1459,1.1468,1.1482,1.149,1.1499,1.1511,1.1519,1.153,1.1537,1.1552,1.156,1.1569,1.1577,1.158,1.1584,1.1587,1.1583,1.1583,1.1587,1.1587,1.1592,1.1592,1.1592,1.1592,0,1.1414,1.1429,1.1441,1.146,1.1465,1.147,1.1486,1.1492,1.1502,1.1512,1.1515,1.153,1.154,1.1553,1.1567,1.1573,1.158,1.1583,1.1576,1.1577,1.1576,1.1576,1.1574,1.1574,1.1583,1.1583,1.1583,0,1.1413,1.1419,1.1439,1.1445,1.1454,1.1464,1.1472,1.1486,1.1493,1.1509,1.1513,1.1524,1.1534,1.1549,1.1561,1.1572,1.1575,1.1574,1.1577,1.1573,1.1575,1.1574,1.1575,1.1573,1.1573,1.1573,1.1572,0,1.1408,1.1415,1.1426,1.1439,1.1448,1.1459,1.1471,1.1475,1.1491,1.1498,1.151,1.1517,1.1532,1.1543,1.1555,1.1562,1.157,1.1571,1.1572,1.1569,1.1564,1.1566,1.1573,1.1571,1.1571,1.1571,1.1572,1.1572,1.1402,1.1408,1.1423,1.1435,1.1445,1.1456,1.1462,1.1473,1.1483,1.1497,1.1504,1.1515,1.1527,1.1544,1.1551,1.1559,1.1562,1.1563,1.1563,1.1563,1.1562,1.1563,1.1561,1.1561,1.1562,1.1562,1.1562,0,1.1398,1.1408,1.1419,1.1435,1.1444,1.1451,1.1464,1.147,1.148,1.1491,1.1501,1.1513,1.1523,1.1536,1.1547,1.1551,1.1554,1.1553,1.1553,1.1554,1.1559,1.1557,1.155,1.155,1.155,1.155,1.155,1.155,1.1397,1.1408,1.1416,1.1431,1.1441,1.1452,1.1459,1.1468,1.1477,1.1491,1.15,1.1508,1.1519,1.1531,1.154,1.1544,1.1547,1.1545,1.1549,1.1553,1.1554,1.1555,1.1553,1.1545,1.1545,1.1543,1.1543,1.1543]},{"header":{"parameterUnit":"m.s-1","parameterCategory":1,"la1":30.2991,"la2":30.254,"lo1":-89.0895,"lo2":-89.0444,"dy":0.0017,"dx":0.0017,"nx":28,"ny":28,"refTime":"2024-08-25T21:00:00:Z","depth":0,"parameterNumber":3,"parameterNumberName":"V-component_of_WINDS"},"data":[0,0,0,0,0,0,0,0,0,0,0,0,0,0,0,0,0,0,0,0,0,0,0,0,0,0,0,0,0,0,0,0,0,0,0,0,0,0,0,0,0,0,0,0,0,0,0,0,0,0,0,0,0,0,0,0,0,0,1.2297,1.2296,0,1.2242,1.2241,1.2241,1.2203,1.2202,1.2202,1.2202,1.2142,1.2141,1.2139,0,0,0,0,0,0,0,0,0,0,0,0,0,1.2365,1.2364,1.2297,1.2296,1.2295,1.2242,1.2241,1.224,1.2203,1.2202,1.2202,1.2202,1.2142,1.2141,1.2139,0,0,0,0,0,0,0,0,0,0,0,0,0,1.2325,1.2363,1.2297,1.227,1.2267,1.2242,1.2241,1.224,1.2203,1.2202,1.2202,1.2201,1.2143,1.2141,1.2139,1.2135,0,0,1.2133,1.2132,0,0,0,0,0,0,0,0,1.2327,1.2323,1.2275,1.2272,1.2269,1.2229,1.2243,1.2205,1.2203,1.2227,1.2202,1.2201,1.2171,1.2167,1.2157,1.2132,1.213,1.2133,1.2132,1.2131,1.213,0,0,0,0,0,0,0,1.233,1.2325,1.2275,1.2274,1.227,1.226,1.2254,1.2236,1.2202,1.2225,1.2222,1.2216,1.2169,1.2159,1.2155,1.2129,1.2133,1.2131,1.213,1.2129,1.2097,1.2097,0,0,0,0,0,0,1.2338,1.2327,1.2277,1.2273,1.2298,1.2259,1.2252,1.2242,1.2202,1.2196,1.2217,1.2215,1.2163,1.2158,1.2153,1.2145,1.2131,1.2129,1.2128,1.2096,1.2097,1.2097,0,0,0,0,0,0,1.2339,1.2333,1.2279,1.2299,1.2292,1.2258,1.2247,1.2241,1.2231,1.2196,1.2189,1.2213,1.2162,1.2156,1.214,1.2143,1.2128,1.2126,1.2096,1.2097,1.2097,1.213,0,0,0,0,0,0,1.2341,1.2334,1.2333,1.23,1.2291,1.2268,1.2247,1.224,1.2228,1.2225,1.2191,1.2184,1.2161,1.2143,1.2138,1.214,1.2125,1.2096,1.2096,1.2097,1.2128,1.2132,1.2134,0,0,0,0,0,1.2344,1.2344,1.2334,1.2328,1.2289,1.2268,1.2263,1.2237,1.2229,1.2227,1.2204,1.2186,1.2143,1.2142,1.2136,1.2137,1.2095,1.2096,1.2097,1.2127,1.2131,1.2134,0,0,0,0,0,0,1.2378,1.2339,1.2327,1.2317,1.2296,1.2262,1.2259,1.2242,1.2223,1.222,1.2188,1.2181,1.2168,1.2151,1.215,1.213,1.2117,1.2117,1.2142,1.2145,1.2148,1.2152,1.2123,0,0,0,0,0,1.2384,1.2372,1.2338,1.2332,1.2322,1.2293,1.2282,1.2265,1.2241,1.2232,1.2208,1.2185,1.2167,1.2155,1.2136,1.2126,1.2117,1.2124,1.2127,1.2129,1.2129,1.2121,1.2123,1.21,1.21,1.21,0,0,1.2397,1.2374,1.2368,1.2338,1.232,1.2307,1.2285,1.2272,1.2261,1.2229,1.2213,1.2195,1.2167,1.2154,1.2147,1.2139,1.2134,1.213,1.2132,1.2131,1.2122,1.2125,1.2127,1.21,1.21,1.21,0,0,1.2413,1.2395,1.2388,1.2371,1.2344,1.2324,1.2322,1.229,1.2277,1.2261,1.2237,1.2223,1.2192,1.2173,1.2159,1.2168,1.215,1.2163,1.2178,1.2171,1.2172,1.2174,1.2176,1.2178,1.2163,1.2163,1.2163,0,1.2432,1.2412,1.2386,1.2374,1.2361,1.2334,1.2325,1.2309,1.2277,1.2268,1.2261,1.2221,1.22,1.2182,1.2184,1.2174,1.217,1.2166,1.2175,1.2176,1.2177,1.2179,1.218,1.2165,1.2164,1.2164,1.2164,0,1.2436,1.2422,1.2419,1.2391,1.2377,1.2367,1.2339,1.2328,1.2312,1.2292,1.2275,1.225,1.2225,1.2219,1.2202,1.2198,1.2194,1.2181,1.2167,1.2181,1.2182,1.2183,1.2167,1.2166,1.2166,1.2166,0,0,1.2472,1.2429,1.2429,1.2415,1.2383,1.2372,1.236,1.2337,1.2328,1.2307,1.2295,1.227,1.2257,1.2242,1.2223,1.2217,1.2225,1.2204,1.2203,1.2208,1.2217,1.2227,1.2228,1.2213,1.2213,1.2213,1.2219,0,1.2483,1.2462,1.2438,1.2424,1.2411,1.2384,1.2374,1.2353,1.2334,1.2319,1.2297,1.228,1.2265,1.2255,1.2248,1.2225,1.2226,1.2224,1.22,1.22,1.2208,1.2229,1.2239,1.2247,1.222,1.222,1.222,0,1.2493,1.2474,1.246,1.2429,1.2422,1.2414,1.239,1.2377,1.2351,1.2338,1.2321,1.2301,1.2286,1.2274,1.2252,1.2251,1.224,1.2227,1.2227,1.2223,1.221,1.2225,1.2249,1.225,1.222,1.222,1.222,0,1.252,1.2491,1.2478,1.2467,1.2432,1.2426,1.241,1.2385,1.2373,1.2352,1.2343,1.2321,1.2308,1.229,1.2264,1.2258,1.2244,1.223,1.2232,1.2232,1.223,1.223,1.2251,1.2224,1.2224,1.2224,1.2224,0,1.2534,1.2526,1.249,1.2482,1.2472,1.2444,1.2435,1.2417,1.2394,1.2381,1.2357,1.2345,1.2311,1.2295,1.2274,1.2259,1.2253,1.2241,1.2235,1.2243,1.2244,1.2235,1.2233,1.2224,1.2224,1.2224,1.2224,0,1.2562,1.2538,1.2522,1.249,1.2482,1.2475,1.2447,1.2438,1.2418,1.2402,1.2397,1.2365,1.2345,1.2317,1.2287,1.2273,1.226,1.2252,1.2269,1.2266,1.2269,1.2269,1.2283,1.2284,1.2257,1.2257,1.2258,0,1.2573,1.2566,1.2534,1.2524,1.251,1.2494,1.2482,1.2454,1.2442,1.2413,1.2407,1.2385,1.2366,1.2334,1.2307,1.2285,1.2275,1.2282,1.2271,1.2279,1.2274,1.2275,1.2274,1.2284,1.2285,1.2285,1.2285,0,1.2594,1.2582,1.2566,1.2545,1.2531,1.2513,1.2494,1.2487,1.2455,1.2442,1.2421,1.2407,1.2377,1.2355,1.2329,1.2312,1.2293,1.2289,1.2288,1.2295,1.2305,1.2299,1.2276,1.2289,1.2288,1.2288,1.2288,1.2288,1.2613,1.2606,1.2582,1.2564,1.2547,1.2529,1.2519,1.2498,1.2481,1.2456,1.244,1.242,1.2395,1.2358,1.2341,1.2324,1.2317,1.2315,1.2315,1.2315,1.2317,1.2309,1.2319,1.2319,1.2319,1.2319,1.2319,0,1.2633,1.2616,1.26,1.2574,1.256,1.2545,1.2523,1.2511,1.2495,1.2473,1.2455,1.2431,1.241,1.2382,1.2358,1.235,1.234,1.2344,1.2344,1.234,1.2325,1.2328,1.2352,1.2352,1.2352,1.2352,1.2352,1.2352,1.2641,1.2628,1.2613,1.2591,1.2574,1.2555,1.2543,1.2527,1.2509,1.2484,1.2467,1.2449,1.2424,1.2398,1.2378,1.237,1.2362,1.2368,1.2358,1.2344,1.2341,1.2338,1.2341,1.2367,1.2367,1.2374,1.2374,1.2374]}]]